Miscellaneous Local Product
Issued by NWS Hastings, NE

Home | Current Version | Previous Version | Graphics & Text | Print | Product List | Glossary On
Versions: 1 2 3 4 5 6 7 8 9 10 11 12 13 14 15 16 17 18 19 20 21 22 23 24 25 26 27 28 29 30 31 32 33 34 35 36 37 38 39 40 41 42 43 44 45 46 47 48 49 50
627
AXUS43 KGID 241102
MISGRI

GID CWA HOURLY WEATHER ROUNDUP
NATIONAL WEATHER SERVICE HASTINGS NE
600 AM CDT WED MAY 24 2017

NOTE: "FAIR" INDICATES FEW OR NO CLOUDS BELOW 12,000 FEET WITH NO
SIGNIFICANT WEATHER AND/OR OBSTRUCTIONS TO VISIBILITY.

...SOUTH CENTRAL NEBRASKA...

CITY           SKY/WX    TMP DP  RH WIND       PRES   REMARKS
GRAND ISLAND   CLEAR     43  42  97 NW9       29.85F
HASTINGS       CLEAR     45  40  82 NW10      29.86S
KEARNEY        CLEAR     43  37  81 NW6       29.87F
ORD            CLEAR     39  36  89 NW6       29.86S WCI  35
YORK           CLEAR     45  43  93 NW10      29.83S
AURORA         CLEAR     44  42  91 NW9       29.84S
LEXINGTON      CLEAR     37  35  92 W7        29.88F WCI  31
HOLDREGE       CLEAR     42  39  88 NW7       29.86F
HEBRON         CLEAR     48  44  86 N8        29.82F

...NEBRASKA PANHANDLE...

CITY           SKY/WX    TMP DP  RH WIND       PRES   REMARKS
CHADRON        CLEAR     42  36  79 VRB3      29.83F
ALLIANCE       CLEAR     32  30  92 SE6       29.86F WCI  26
SCOTTSBLUFF    CLEAR     38  34  85 E9        29.85F WCI  31
SIDNEY         CLOUDY    30  29  96 SW7       29.89F WCI  23

...WESTERN AND NORTH CENTRAL NEBRASKA...

CITY           SKY/WX    TMP DP  RH WIND       PRES   REMARKS
VALENTINE      CLEAR     31  28  89 W6        29.87F WCI  25
AINSWORTH      CLEAR     36  36  99 W3        29.86F
ONEILL         CLEAR     40  38  90 NW6       29.86F
BROKEN BOW     CLEAR     39  37  92 N6        29.86F WCI  35
IMPERIAL       CLEAR     37  33  85 W3        29.91F
NORTH PLATTE   CLOUDY    32  31  96 N3        29.88F
MCCOOK         CLEAR     35  35 100 W6        29.89F WCI  30

...EASTERN NEBRASKA...

CITY           SKY/WX    TMP DP  RH WIND       PRES   REMARKS
NORFOLK        CLEAR     43  40  89 W6        29.83R
SO SIOUX CITY  CLEAR     45  45 100 NW9       29.80S
TEKAMAH        PTCLDY    47  44  90 NW13      29.78F
ALBION         CLEAR     42  39  89 NW7       29.84F
OMAHA EPPLEY   MOCLDY    50  44  80 NW13      29.76F
OFFUTT AFB     CLOUDY    50  46  84 NW12      29.75F
MILLARD        CLOUDY    51  47  87 NW8       29.78S
LINCOLN        CLEAR     47  44  90 N10       29.81F
NEBRASKA CITY  CLOUDY    51  46  85 NW12      29.76S
BEATRICE       CLEAR     46  45  95 NW8       29.79F
FALLS CITY     CLOUDY    50  47  89 NW9       29.74S

...NORTHERN KANSAS...

CITY           SKY/WX    TMP DP  RH WIND       PRES   REMARKS
GOODLAND       CLEAR     36  33  89 W3        29.91F
HILL CITY      CLEAR     40  38  93 NW9       29.89F WCI  34
NORTON         SUNNY     37  34  87 W9        29.88F WCI  31
PHILLIPSBURG   CLOUDY    43  43 100 W8        29.88F
SMITH CENTER   CLEAR     37  36  93 NW3       29.88S
HAYS           CLEAR     39  37  92 NW6       29.88F WCI  35
RUSSELL        CLEAR     43  39  86 NW10      29.86F
CONCORDIA      CLEAR     43  42  97 W8        29.83S
SALINA         CLEAR     46  42  86 W9        29.84S
TOPEKA         PTCLDY    48  47  96 W7        29.76S



USA.gov is the U.S. government's official web portal to all federal, state and local government web resources and services.